Regional Weather Roundup
Issued by NWS Grand Forks, ND

Home | Current Version | Previous Version | Text Only | Print | Product List | Glossary On
Versions: 1 2 3 4 5 6 7 8 9 10 11 12 13 14 15 16 17 18 19 20 21 22 23 24 25 26 27 28 29 30 31 32 33 34 35 36 37 38 39 40 41 42 43 44 45 46 47 48 49 50
000
ASUS43 KFGF 012110
RWRFGF
PRAIRIE TO PINES  WEATHER ROUNDUP
NATIONAL WEATHER SERVICE EASTERN NORTH DAKOTA/GRAND FORKS ND
400 PM CDT SUN MAY 01 2016

 **SATELLITE DATA USED TO AUGMENT SKY COVER AT AUTOMATED STATIONS**
 *****  WEATHER ACROSS EASTERN NORTH DAKOTA  *****

CITY           SKY/WX    TMP DP  RH WIND       PRES   REMARKS
GRAND FORKS    SUNNY     65  29  25 VRB5      30.18F
GRAND FRKS AFB SUNNY     64  26  24 NE9       30.19F
DEVILS LAKE    SUNNY     61  28  28 SW13G21   30.20F
FARGO          SUNNY     67  28  23 N14       30.17F
WAHPETON ARPT  CLEAR     63  27  25 NE9G16    30.18F
$$

 ***** WEATHER ACROSS CENTRAL AND WESTERN NORTH DAKOTA  *****

CITY           SKY/WX    TMP DP  RH WIND       PRES   REMARKS
BISMARCK       SUNNY     64  28  25 VRB7      30.23F
MINOT          SUNNY     68  24  19 VRB5      30.20F
JAMESTOWN      SUNNY     61  28  28 W8        30.19F
MINOT AFB      SUNNY     64  26  23 VRB5      30.19F
GARRISON         N/A     63  27  25 SW9       30.21F
WILLISTON      SUNNY     65  26  23 VRB7      30.22F
DICKINSON      SUNNY     62  27  26 N13       30.21F
HETTINGER      SUNNY     59  28  30 MISG      30.24F
$$

 *****  OTHER AIRPORT OBSERVATIONS IN OUR AREA  *****

CITY           SKY/WX    TMP DP  RH WIND       PRES   REMARKS
WALHALLA       FAIR      64  30  27 E6G16     30.19F
GRAFTON AIRPOR FAIR      64  27  24 VRB5      30.20F
VALLEY CITY AR FAIR      63  28  27 N10       30.21F
CANDO          FAIR      64  23  20 N7        30.21F
CAVALIER APRT  FAIR      64  27  24 NE3       30.19F
GWINNER        FAIR      63  32  31 N5        30.20F
SHEYENNE NWR     N/A     63  29  28 N5        29.95S
ROLLA          FAIR      63  23  22 S8        30.21F
 ***** THE ABOVE OBSERVATIONS ARE NON NWS ARE NOT QUALITY
       CONTROLLED AND MAY MIS-REPORT RAIN FOR SNOW...
$$

  *****  WEATHER ACROSS NORTHERN MINNESOTA  *****

CITY           SKY/WX    TMP DP  RH WIND       PRES   REMARKS
FLAG ISLAND    SUNNY     50  36  57 CALM      30.19F
WARROAD        SUNNY     57  32  38 E9        30.21F
ROSEAU         SUNNY     61  34  36 SE8       30.19F
HALLOCK        SUNNY     64  19  17 N3        30.18F
THF RVR FALLS  SUNNY     63  27  25 N9        30.19F
BAUDETTE       SUNNY     60  27  28 N16       30.18F
WASKISH        SUNNY     63  30  29 N8        30.17F
CROOKSTON      SUNNY     64  28  25 N9        30.18F
STEPHEN NDAWN    N/A     64  28  25 S2          N/A
GREENBUSH NDAW   N/A     63  28  27 N3          N/A
$$
  *****  WEATHER ACROSS CENTRAL AND WEST MINNESOTA  *****

CITY           SKY/WX    TMP DP  RH WIND       PRES   REMARKS
FOSSTON        SUNNY     63  28  27 N9        30.18F
BEMIDJI        SUNNY     60  31  33 NE9       30.16F
PARK RAPIDS    SUNNY     62  27  26 E9        30.15F
ELBOW LAKE     FAIR      58  31  35 NE7G17    30.17F
WADENA         NOT AVBL
DETROIT LAKES  SUNNY     61  32  33 NE5       30.17F
MOORHEAD       SUNNY     63  28  27 N9G18     30.18F
FERGUS FALLS   SUNNY     61  32  33 NE7       30.14F
MORRIS MN      SUNNY     63  30  29 E6G17     30.15F
STAPLES        SUNNY     61  27  27 NE7       30.15F
$$
  *****  WEATHER ELSEWHERE ACROSS MINNESOTA  *****

CITY           SKY/WX    TMP DP  RH WIND       PRES   REMARKS
DULUTH         MOSUNNY   54  32  43 E16G22    30.18S
INTRNTL FALLS  SUNNY     57  28  33 E6        30.18F
ELY            SUNNY     57  28  33 NE6       30.15F
CLOQUET        SUNNY     54  30  40 E10G17    30.17S
WHEATON        SUNNY     64  34  32 N8G17     30.19F
BRAINERD       SUNNY     60  30  32 NE14      30.15F
HIBBING        SUNNY     57  28  33 VRB5      30.15F
ALEXANDRIA     SUNNY     61  29  29 N13       30.16F
SAINT CLOUD    SUNNY     61  31  32 N7        30.13F
MINNEAPOLIS    PTSUNNY   60  34  37 NE10      30.10F
$$

  *****  WEATHER ACROSS SOUTH DAKOTA  *****

CITY           SKY/WX    TMP DP  RH WIND       PRES   REMARKS
SIOUX FALLS    PTSUNNY   55  38  52 NE10      30.16F
BROOKINGS      MOSUNNY   57  33  40 NE10      30.16F
WATERTOWN      SUNNY     59  30  33 NE14G22   30.17F
HURON          SUNNY     61  33  35 NE10G20   30.19F
SISSETON         N/A     62  29  28 N8G18     30.17F
ABERDEEN       SUNNY     63  32  31 NE9G22    30.21F
MITCHELL       MOSUNNY   59  39  47 NE7       30.19F
PIERRE         SUNNY     59  31  34 VRB3      30.22F
MOBRIDGE       SUNNY     63  32  31 NW12      30.20F
RAPID CITY     SUNNY     56  31  38 N10       30.26F
$$

  *****  SOME WEATHER IN NEARBY STATES *****

CITY           SKY/WX    TMP DP  RH WIND       PRES   REMARKS
GLASGOW MT     SUNNY     65  31  28 VRB6      30.24F
GREAT FALLS MT SUNNY     61  32  33 VRB3      30.24F
CHEYENNE WY    PTSUNNY   38  23  55 N9        30.27F
SCOTTSBLUFF NE PTSUNNY   51  29  42 N15G22    30.27F
OMAHA NE       CLOUDY    49  43  80 N13       30.11F
DES MOINES IA  LGT RAIN  48  44  86 N7        30.06S
DAVENPORT IA   RAIN      49  47  93 NE10      30.00S FOG
CHICAGO IL     CLOUDY    48  44  86 NE14      29.99F
EAU CLAIRE WI  MOSUNNY   64  30  27 E10G20    30.06S
LA CROSSE WI   CLOUDY    56  39  53 SE5       30.05F
$$

  *****  SOME NATIONAL WEATHER *****

CITY           SKY/WX    TMP DP  RH WIND       PRES   REMARKS
LA GUARDIA NY  LGT RAIN  50  43  77 E9        30.12F
RALEIGH NC     PTSUNNY   77  65  66 SW8       30.00F
ATLANTA GA     CLOUDY    82  64  54 SW8       29.99F
NEW ORLEANS LA TSTM      71  68  90 S12       29.96F FOG
OKLAHOMA CITY  MOSUNNY   64  45  49 N18G25    30.07S
ALBUQUERQUE NM PTSUNNY   50  29  44 E31G40    30.09S
SALT LAKE CITY MOSUNNY   63  24  22 NE13G24   30.03F
LOS ANGELES CA MOSUNNY   68  52  56 W10       29.93S
BOISE ID       SUNNY     67  36  31 NE5       30.08F
SEATTLE WA     SUNNY     75  46  35 N14       30.06F
$$

*** WEATHER ACROSS MANITOBA...SASKATCHEWAN AND ONTARIO ***
                ***ONTARIO***

CITY           SKY/WX    TMP DP  RH WIND       PRES   REMARKS
GERALDTON      CLOUDY    46  32  57 VRB5      30.21F
THUNDER BAY    MOSUNNY   55  34  44 E13       30.18F
SIOUX LOOKOUT  MOSUNNY   59  27  29 N7G17     30.17F
TORONTO        DRIZZLE   48  46  93 NE12      29.99S
BIG TROUT LK   CLOUDY    55  23  28 VRB5      30.14F
PICKLE LAKE    MOSUNNY   61  28  29 VRB6      30.14F
DRYDEN         SUNNY     61  27  27 VRB6      30.16F
KENORA         MOSUNNY   63  25  23 N5        30.18F
$$
                *** MANITOBA***

CITY           SKY/WX    TMP DP  RH WIND       PRES   REMARKS
BRANDON        NOT AVBL
DAUPHIN        MOSUNNY   68  27  21 W10G20    30.12F
ISLAND LAKE    PTSUNNY   66  28  24 SW6       30.10F
PILOT MOUND      N/A     64  25  22 NW6         N/A
THE PAS        LGT RAIN  45  41  87 N7        30.10R
THOMPSON       MOSUNNY   66  32  28 SW18G29   30.00F
WINNIPEG       MOSUNNY   64  30  27 VRB5      30.17F
LYNN LAKE      CLOUDY    55  41  58 N9        30.02F
CHURCHILL      PTSUNNY   52  36  54 S10       29.97F
$$
                ***SASKATCHEWAN***

CITY           SKY/WX    TMP DP  RH WIND       PRES   REMARKS
ESTEVAN        MOSUNNY   70  27  19 VRB12     30.20F
KINDERSLEY     PTSUNNY   70  32  24 W17G26    30.15F
LLOYDMINSTER   PTSUNNY   73  25  16 W18G25    30.08F
PRINCE ALBERT  PTSUNNY   72  30  21 NW15G26   30.04F
REGINA         PTSUNNY   70  34  26 NW12G23   30.16F
YORKTON        CLOUDY    66  28  24 W14G22    30.10F
N. BATTLEFORD  SUNNY     72  30  21 W14G21    30.11F
LA RONGE       NOT AVBL
SASKATOON      MOSUNNY   72  32  23 W15G23    30.11F
SWIFT CURRENT  SUNNY     66  30  26 W17G23    30.19F
$$
NOTE: THESE ARE AUTOMATED STATIONS WITH LIMITED QUALITY CONTROL
      "FAIR" INDICATES FEW OR NO CLOUDS BELOW 12,000 FEET WITH NO
      SIGNIFICANT WEATHER AND/OR OBSTRUCTIONS TO VISIBILITY.
      SKY/WX - SKY CONDITION AND SIGNIFICANT WEATHER.
      TMP - AIR TEMPERATURE.    DP   - DEWPOINT TEMPERATURE.
      RH  - RELATIVE HUMIDITY.  PRES - PRESSURE.
      HX  - HEAT INDEX.         WCI  - WIND CHILL INDEX.
$



USA.gov is the U.S. government's official web portal to all federal, state and local government web resources and services.